Weather History for KLXT - April, 2013

Change the Weather History Date:

Thursday, April 4, 2013

  Actual Average (KMKC) Record (KMKC)
Temperature  
Mean Temperature 50 °F -  
Max Temperature 62 °F 60 °F 81 °F (2005)
Min Temperature 39 °F 41 °F 28 °F (2002)
Degree Days  
Heating Degree Days 14    
Moisture  
Dew Point 23 °F    
Average Humidity 37    
Maximum Humidity 62    
Minimum Humidity 21    
Precipitation  
Precipitation 0.00 in - - ()
Sea Level Pressure  
Sea Level Pressure 30.15 in    
Wind  
Wind Speed 3 mph (NNE)    
Max Wind Speed 8 mph    
Max Gust Speed 17 mph    
Visibility 10 miles    
Events      
Averages and records for this station are not official NWS values.
T = Trace of Precipitation, MM = Missing Value Source: NWS Daily Summary

Daily Weather History Graph

Daily Weather History Graph

Search for Another Location

Airport or City:

Trip Planner

Search our weather history database for the weather conditions in past years. The results will help you decide how hot, cold, wet, or windy it might be!

Date:

Astronomy

Apr. 04, 2013 Rise Set
Actual Time 6:57 AM CDT 7:44 PM CDT
Civil Twilight 6:30 AM CDT 8:11 PM CDT
Nautical Twilight 5:58 AM CDT 8:43 PM CDT
Astronomical Twilight 5:25 AM CDT 9:16 PM CDT
Moon 3:21 AM CDT (4/4) 2:06 PM CDT (4/4)
Length of Visible Light 13h 41m
Length of Day
12h 47m
Waning Crescent, 33% of the Moon is Illuminated
Apr 4
Waning Crescent
Apr 10
New
Apr 18
First Quarter
Apr 25
Full
May 2
Last Quarter

Hourly Weather History & Observations

Time (CDT) Temp. Windchill Dew Point Humidity Pressure Visibility Wind Dir Wind Speed Gust Speed Precip Events Conditions
12:53 AM 41.0 °F 39.0 °F 21.9 °F 47% 30.24 in 10.0 mi NE 3.5 mph - N/A   Clear
1:53 AM 42.1 °F 40.2 °F 23.0 °F 47% 30.23 in 10.0 mi NE 3.5 mph - N/A   Partly Cloudy
2:53 AM 39.9 °F 37.8 °F 25.0 °F 55% 30.22 in 10.0 mi NNE 3.5 mph - N/A   Overcast
3:53 AM 39.9 °F 35.8 °F 25.0 °F 55% 30.21 in 10.0 mi North 5.8 mph - N/A   Scattered Clouds
4:53 AM 39.9 °F 37.8 °F 23.0 °F 51% 30.20 in 10.0 mi NE 3.5 mph - N/A   Overcast
5:53 AM 39.9 °F 37.8 °F 24.1 °F 53% 30.19 in 10.0 mi NNE 3.5 mph - N/A   Overcast
6:53 AM 39.0 °F - 24.1 °F 55% 30.20 in 10.0 mi Calm Calm - N/A   Mostly Cloudy
7:53 AM 39.0 °F - 27.0 °F 62% 30.20 in 10.0 mi Calm Calm - N/A   Overcast
8:53 AM 42.1 °F - 27.0 °F 55% 30.19 in 10.0 mi Calm Calm - N/A   Overcast
9:53 AM 46.9 °F - 25.0 °F 42% 30.18 in 10.0 mi North 3.5 mph - N/A   Partly Cloudy
10:53 AM 51.1 °F - 25.0 °F 36% 30.18 in 10.0 mi Variable 3.5 mph - N/A   Clear
11:53 AM 52.0 °F - 21.9 °F 31% 30.17 in 10.0 mi NNE 8.1 mph 17.3 mph N/A   Clear
12:53 PM 55.0 °F - 23.0 °F 29% 30.15 in 10.0 mi NE 4.6 mph - N/A   Clear
1:53 PM 57.0 °F - 21.0 °F 25% 30.12 in 10.0 mi Variable 5.8 mph - N/A   Clear
2:53 PM 60.1 °F - 21.9 °F 23% 30.11 in 10.0 mi North 6.9 mph - N/A   Clear
3:53 PM 61.0 °F - 21.0 °F 21% 30.08 in 10.0 mi Calm Calm - N/A   Clear
4:53 PM 61.0 °F - 19.9 °F 21% 30.07 in 10.0 mi NE 4.6 mph - N/A   Clear
5:53 PM 62.1 °F - 23.0 °F 22% 30.07 in 10.0 mi North 8.1 mph - N/A   Clear
6:53 PM 60.1 °F - 24.1 °F 25% 30.07 in 10.0 mi North 3.5 mph - N/A   Clear
7:53 PM 57.9 °F - 21.0 °F 24% 30.08 in 10.0 mi Calm Calm - N/A   Clear
8:53 PM 57.0 °F - 21.0 °F 25% 30.09 in 10.0 mi Calm Calm - N/A   Clear
9:53 PM 54.0 °F - 21.9 °F 29% 30.10 in 10.0 mi SSE 3.5 mph - N/A   Clear
10:53 PM 53.1 °F - 21.0 °F 29% 30.11 in 10.0 mi SSW 3.5 mph - N/A   Clear
11:53 PM 50.0 °F - 21.9 °F 33% 30.11 in 10.0 mi SW 4.6 mph - N/A   Clear